TimeCDT,TemperatureF,Dew PointF,Humidity,Sea Level PressureIn,VisibilityMPH,Wind Direction,Wind SpeedMPH,Gust SpeedMPH,PrecipitationIn,Events,Conditions,WindDirDegrees,DateUTC
12:15 AM,37.4,28.4,70,29.62,10.0,WSW,13.8,18.4,N/A,,Clear,250,2013-04-15 05:15:00
12:35 AM,37.4,28.4,70,29.63,10.0,West,15.0,24.2,N/A,,Clear,260,2013-04-15 05:35:00
12:55 AM,35.6,26.6,70,29.65,10.0,West,15.0,19.6,N/A,,Scattered Clouds,260,2013-04-15 05:55:00
1:15 AM,35.6,26.6,70,29.66,10.0,West,13.8,-,N/A,,Mostly Cloudy,260,2013-04-15 06:15:00
1:35 AM,35.6,23.0,60,29.66,10.0,West,29.9,34.5,N/A,,Clear,260,2013-04-15 06:35:00
1:55 AM,33.8,23.0,65,29.66,10.0,WSW,21.9,27.6,N/A,,Clear,250,2013-04-15 06:55:00
2:15 AM,33.8,21.2,60,29.66,10.0,West,27.6,36.8,N/A,,Clear,270,2013-04-15 07:15:00
2:35 AM,33.8,21.2,60,29.65,10.0,West,20.7,32.2,N/A,,Scattered Clouds,260,2013-04-15 07:35:00
2:55 AM,33.8,21.2,60,29.67,10.0,West,21.9,28.8,N/A,,Mostly Cloudy,270,2013-04-15 07:55:00
3:15 AM,33.8,19.4,56,29.67,10.0,West,18.4,29.9,N/A,,Scattered Clouds,260,2013-04-15 08:15:00
3:35 AM,32.0,19.4,60,29.67,10.0,West,20.7,29.9,N/A,,Clear,260,2013-04-15 08:35:00
3:55 AM,30.2,19.4,64,29.67,10.0,West,20.7,32.2,N/A,,Clear,260,2013-04-15 08:55:00
4:15 AM,30.2,19.4,64,29.68,10.0,West,20.7,26.5,N/A,,Clear,270,2013-04-15 09:15:00
4:35 AM,30.2,21.2,69,29.67,10.0,West,19.6,26.5,N/A,,Clear,270,2013-04-15 09:35:00
4:55 AM,30.2,21.2,69,29.69,10.0,West,19.6,25.3,N/A,,Clear,260,2013-04-15 09:55:00
5:15 AM,30.2,21.2,69,29.70,10.0,WSW,23.0,29.9,N/A,,Scattered Clouds,250,2013-04-15 10:15:00
5:35 AM,30.2,21.2,69,29.69,10.0,West,20.7,27.6,N/A,,Mostly Cloudy,260,2013-04-15 10:35:00
5:55 AM,30.2,23.0,75,29.69,10.0,WSW,18.4,26.5,N/A,,Partly Cloudy,250,2013-04-15 10:55:00
6:15 AM,30.2,21.2,69,29.73,10.0,WSW,19.6,23.0,N/A,,Clear,240,2013-04-15 11:15:00
6:35 AM,30.2,23.0,75,29.73,10.0,WSW,18.4,-,N/A,,Clear,250,2013-04-15 11:35:00
6:55 AM,30.2,23.0,75,29.73,10.0,West,20.7,-,N/A,,Scattered Clouds,260,2013-04-15 11:55:00
7:15 AM,30.2,23.0,75,29.73,10.0,West,16.1,28.8,N/A,,Mostly Cloudy,270,2013-04-15 12:15:00
7:35 AM,32.0,24.8,75,29.73,10.0,West,20.7,25.3,N/A,,Overcast,270,2013-04-15 12:35:00
7:55 AM,32.0,24.8,75,29.74,10.0,West,20.7,24.2,N/A,,Overcast,270,2013-04-15 12:55:00
8:15 AM,33.8,24.8,70,29.74,10.0,West,18.4,27.6,N/A,,Overcast,270,2013-04-15 13:15:00
8:35 AM,33.8,24.8,70,29.76,10.0,West,24.2,31.1,N/A,,Mostly Cloudy,280,2013-04-15 13:35:00
8:55 AM,33.8,24.8,70,29.78,10.0,West,25.3,34.5,N/A,,Overcast,270,2013-04-15 13:55:00
9:15 AM,33.8,24.8,70,29.79,10.0,West,25.3,32.2,N/A,,Overcast,270,2013-04-15 14:15:00
9:35 AM,35.6,26.6,70,29.81,10.0,West,23.0,31.1,N/A,,Overcast,270,2013-04-15 14:35:00
9:55 AM,35.6,24.8,65,29.83,10.0,West,17.3,-,N/A,,Overcast,270,2013-04-15 14:55:00
10:15 AM,35.6,26.6,70,29.83,10.0,West,25.3,29.9,N/A,,Overcast,280,2013-04-15 15:15:00
10:35 AM,35.6,26.6,70,29.85,10.0,West,19.6,28.8,N/A,,Overcast,280,2013-04-15 15:35:00
10:55 AM,35.6,24.8,65,29.86,10.0,West,23.0,27.6,N/A,,Overcast,280,2013-04-15 15:55:00
11:15 AM,35.6,24.8,65,29.88,10.0,West,20.7,27.6,N/A,,Overcast,270,2013-04-15 16:15:00
11:35 AM,35.6,24.8,65,29.90,10.0,West,21.9,28.8,N/A,,Overcast,260,2013-04-15 16:35:00
11:55 AM,35.6,24.8,65,29.91,10.0,West,24.2,29.9,N/A,,Overcast,270,2013-04-15 16:55:00
12:15 PM,37.4,26.6,65,29.92,10.0,West,23.0,31.1,N/A,,Overcast,260,2013-04-15 17:15:00
12:35 PM,37.4,24.8,60,29.90,10.0,West,25.3,29.9,N/A,,Overcast,280,2013-04-15 17:35:00
12:55 PM,37.4,26.6,65,29.90,10.0,West,19.6,31.1,N/A,,Overcast,280,2013-04-15 17:55:00
1:15 PM,39.2,26.6,61,29.89,10.0,West,25.3,32.2,N/A,,Overcast,270,2013-04-15 18:15:00
1:35 PM,39.2,26.6,61,29.90,10.0,West,21.9,29.9,N/A,,Overcast,280,2013-04-15 18:35:00
1:55 PM,41.0,26.6,57,29.90,10.0,West,21.9,32.2,N/A,,Overcast,280,2013-04-15 18:55:00
2:15 PM,41.0,26.6,57,29.91,10.0,WNW,20.7,27.6,N/A,,Overcast,290,2013-04-15 19:15:00
2:35 PM,41.0,26.6,57,29.91,10.0,WNW,19.6,29.9,N/A,,Overcast,300,2013-04-15 19:35:00
2:55 PM,41.0,26.6,57,29.92,10.0,WNW,18.4,-,N/A,,Overcast,300,2013-04-15 19:55:00
3:15 PM,41.0,26.6,57,29.92,10.0,WNW,21.9,25.3,N/A,,Overcast,290,2013-04-15 20:15:00
3:35 PM,41.0,28.4,61,29.93,10.0,WNW,19.6,26.5,N/A,,Overcast,300,2013-04-15 20:35:00
3:55 PM,42.8,28.4,57,29.93,10.0,WNW,21.9,25.3,N/A,,Overcast,300,2013-04-15 20:55:00
4:15 PM,41.0,26.6,57,29.93,10.0,NW,20.7,25.3,N/A,,Mostly Cloudy,310,2013-04-15 21:15:00
4:35 PM,42.8,28.4,57,29.94,10.0,West,17.3,25.3,N/A,,Mostly Cloudy,280,2013-04-15 21:35:00
4:55 PM,42.8,26.6,53,29.94,10.0,WNW,20.7,-,N/A,,Overcast,300,2013-04-15 21:55:00
5:15 PM,41.0,26.6,57,29.95,10.0,WNW,17.3,21.9,N/A,,Mostly Cloudy,290,2013-04-15 22:15:00
5:35 PM,41.0,26.6,57,29.95,10.0,NW,16.1,24.2,N/A,,Mostly Cloudy,310,2013-04-15 22:35:00
5:55 PM,41.0,26.6,57,29.95,10.0,NW,17.3,23.0,N/A,,Overcast,310,2013-04-15 22:55:00
6:15 PM,39.2,26.6,61,29.96,10.0,WNW,17.3,-,N/A,,Mostly Cloudy,300,2013-04-15 23:15:00
6:35 PM,39.2,28.4,65,29.97,10.0,WNW,16.1,21.9,N/A,,Scattered Clouds,300,2013-04-15 23:35:00
6:55 PM,39.2,26.6,61,29.97,10.0,WNW,17.3,-,N/A,,Scattered Clouds,300,2013-04-15 23:55:00
7:15 PM,39.2,26.6,61,29.99,10.0,NW,17.3,-,N/A,,Mostly Cloudy,310,2013-04-16 00:15:00
7:35 PM,37.4,26.6,65,29.99,10.0,NW,13.8,-,N/A,,Scattered Clouds,310,2013-04-16 00:35:00
7:55 PM,37.4,26.6,65,30.00,10.0,WNW,12.7,-,N/A,,Clear,300,2013-04-16 00:55:00
8:15 PM,35.6,26.6,70,30.02,10.0,WNW,11.5,-,N/A,,Clear,300,2013-04-16 01:15:00
8:35 PM,35.6,28.4,75,30.04,10.0,WNW,12.7,-,N/A,,Clear,300,2013-04-16 01:35:00
8:55 PM,35.6,28.4,75,30.05,10.0,WNW,10.4,-,N/A,,Clear,300,2013-04-16 01:55:00
9:15 PM,35.6,28.4,75,30.05,10.0,NNW,9.2,-,N/A,,Clear,330,2013-04-16 02:15:00
9:35 PM,33.8,28.4,81,30.07,10.0,NW,8.1,-,N/A,,Clear,320,2013-04-16 02:35:00
9:55 PM,32.0,28.4,87,30.08,10.0,NNW,5.8,-,N/A,,Clear,330,2013-04-16 02:55:00
10:15 PM,33.8,26.6,75,30.08,10.0,NW,6.9,-,N/A,,Clear,320,2013-04-16 03:15:00
10:35 PM,33.8,26.6,75,30.09,10.0,NW,8.1,-,N/A,,Clear,310,2013-04-16 03:35:00
10:55 PM,32.0,28.4,87,30.09,10.0,NW,6.9,-,N/A,,Clear,310,2013-04-16 03:55:00
11:15 PM,32.0,26.6,80,30.10,10.0,WNW,5.8,-,N/A,,Clear,300,2013-04-16 04:15:00
11:35 PM,30.2,26.6,86,30.09,10.0,WNW,6.9,-,N/A,,Clear,290,2013-04-16 04:35:00
11:55 PM,30.2,28.4,93,30.10,10.0,WNW,4.6,-,N/A,,Clear,290,2013-04-16 04:55:00